← Sensortests · Zur Website

TXT-Auswertung

GrowTek Testauswertung

Test-ID: TEST-2026-08-21-001

Name: SHT41 Teststation

Start: 2026-08-21 18:13:25

Ende: 2026-08-22 17:09:03

Status: finished

Diagramme und Statistiken umfassen alle diesem Test zugeordneten Messungen, getrennt nach Sensor.

SHT41 Test (#1)

1366 Messungen

Letzte Werte im Test · 2026-08-22 17:08:12

Temperatur: 23,38 °C

Luftfeuchte: 63,38 %

Temperatur (°C)

Minimum22,02 °C
Maximum24,74 °C
Durchschnitt23,11 °C
Gültige Messungen1366

Luftfeuchte (%)

Minimum63,17 %
Maximum68,72 %
Durchschnitt67,02 %
Gültige Messungen1366
Messwerttabelle (1366 Einträge)
ZeitTemperaturLuftfeuchte
2026-08-21 18:14:1924,46 °C66,26 %
2026-08-21 18:15:1924,47 °C66,24 %
2026-08-21 18:16:1924,46 °C66,23 %
2026-08-21 18:17:1924,47 °C66,21 %
2026-08-21 18:18:1924,47 °C66,21 %
2026-08-21 18:19:1924,48 °C66,20 %
2026-08-21 18:20:1924,47 °C66,19 %
2026-08-21 18:21:1924,48 °C66,21 %
2026-08-21 18:22:1924,48 °C66,20 %
2026-08-21 18:23:1924,48 °C66,19 %
2026-08-21 18:24:1924,48 °C66,20 %
2026-08-21 18:25:2124,50 °C66,21 %
2026-08-21 18:26:1924,51 °C66,22 %
2026-08-21 18:27:1924,48 °C66,18 %
2026-08-21 18:28:1924,53 °C66,21 %
2026-08-21 18:29:1924,50 °C66,20 %
2026-08-21 18:30:1924,50 °C66,18 %
2026-08-21 18:31:1924,50 °C66,14 %
2026-08-21 18:32:1924,52 °C66,04 %
2026-08-21 18:33:1924,51 °C66,03 %
2026-08-21 18:34:1924,49 °C65,94 %
2026-08-21 18:35:1924,52 °C65,99 %
2026-08-21 18:36:1924,52 °C66,01 %
2026-08-21 18:37:1924,52 °C65,98 %
2026-08-21 18:38:1924,54 °C65,94 %
2026-08-21 18:39:1924,52 °C65,94 %
2026-08-21 18:40:1924,52 °C65,91 %
2026-08-21 18:41:1924,55 °C65,85 %
2026-08-21 18:42:1924,54 °C65,86 %
2026-08-21 18:43:1924,55 °C65,87 %
2026-08-21 18:44:1924,55 °C65,83 %
2026-08-21 18:45:1924,55 °C65,81 %
2026-08-21 18:46:1924,55 °C65,82 %
2026-08-21 18:47:1924,54 °C65,84 %
2026-08-21 18:48:1924,56 °C65,86 %
2026-08-21 18:49:2124,56 °C65,88 %
2026-08-21 18:50:1924,59 °C65,92 %
2026-08-21 18:51:1924,56 °C65,87 %
2026-08-21 18:52:1924,59 °C65,83 %
2026-08-21 18:53:1924,57 °C65,85 %
2026-08-21 18:54:1924,56 °C65,85 %
2026-08-21 18:55:1924,59 °C65,85 %
2026-08-21 18:56:1924,58 °C65,85 %
2026-08-21 18:57:1924,60 °C65,86 %
2026-08-21 18:58:1924,59 °C65,88 %
2026-08-21 18:59:1924,60 °C65,90 %
2026-08-21 19:00:1924,61 °C65,94 %
2026-08-21 19:02:2624,62 °C65,97 %
2026-08-21 19:03:2624,61 °C65,93 %
2026-08-21 19:04:2624,64 °C65,95 %
2026-08-21 19:05:2624,64 °C65,96 %
2026-08-21 19:06:2624,64 °C65,96 %
2026-08-21 19:07:2624,64 °C66,00 %
2026-08-21 19:08:2624,64 °C66,02 %
2026-08-21 19:09:2624,64 °C66,02 %
2026-08-21 19:10:2624,66 °C66,00 %
2026-08-21 19:11:2624,65 °C66,03 %
2026-08-21 19:12:2624,64 °C66,05 %
2026-08-21 19:13:2624,66 °C66,07 %
2026-08-21 19:14:2724,67 °C66,06 %
2026-08-21 19:15:2624,66 °C65,99 %
2026-08-21 19:16:2624,66 °C65,96 %
2026-08-21 19:17:2624,66 °C66,02 %
2026-08-21 19:18:2624,65 °C65,95 %
2026-08-21 19:19:2624,66 °C65,96 %
2026-08-21 19:20:2624,65 °C65,91 %
2026-08-21 19:21:2624,64 °C65,98 %
2026-08-21 19:22:2624,65 °C65,94 %
2026-08-21 19:23:2624,68 °C65,92 %
2026-08-21 19:24:2624,67 °C65,90 %
2026-08-21 19:25:2624,67 °C65,94 %
2026-08-21 19:26:2724,66 °C65,91 %
2026-08-21 19:27:2624,66 °C65,83 %
2026-08-21 19:28:2624,67 °C65,86 %
2026-08-21 19:29:2624,67 °C65,84 %
2026-08-21 19:30:2624,65 °C65,77 %
2026-08-21 19:31:2624,68 °C65,80 %
2026-08-21 19:32:2624,68 °C65,72 %
2026-08-21 19:33:2624,66 °C65,72 %
2026-08-21 19:34:2624,68 °C65,70 %
2026-08-21 19:35:2624,67 °C65,72 %
2026-08-21 19:36:2624,68 °C65,70 %
2026-08-21 19:37:2624,67 °C65,61 %
2026-08-21 19:38:3724,68 °C65,64 %
2026-08-21 19:39:3224,68 °C65,62 %
2026-08-21 19:40:3224,68 °C65,63 %
2026-08-21 19:41:3224,71 °C65,60 %
2026-08-21 19:42:3224,67 °C65,57 %
2026-08-21 19:43:3224,70 °C65,61 %
2026-08-21 19:44:3224,68 °C65,58 %
2026-08-21 19:45:3224,69 °C65,64 %
2026-08-21 19:46:3224,68 °C65,65 %
2026-08-21 19:47:3224,67 °C65,66 %
2026-08-21 19:48:3224,69 °C65,64 %
2026-08-21 19:49:3224,69 °C65,62 %
2026-08-21 19:50:3424,70 °C65,62 %
2026-08-21 19:51:3224,69 °C65,57 %
2026-08-21 19:52:3224,71 °C65,55 %
2026-08-21 19:53:3224,72 °C65,52 %
2026-08-21 19:54:3224,70 °C65,50 %
2026-08-21 19:55:3224,72 °C65,50 %
2026-08-21 19:56:3224,73 °C65,47 %
2026-08-21 19:57:3224,73 °C65,50 %
2026-08-21 19:58:3224,73 °C65,45 %
2026-08-21 19:59:3224,73 °C65,43 %
2026-08-21 20:00:3224,72 °C65,42 %
2026-08-21 20:01:3224,74 °C65,44 %
2026-08-21 20:02:3324,73 °C65,41 %
2026-08-21 20:03:3224,74 °C65,40 %
2026-08-21 20:04:3224,74 °C65,43 %
2026-08-21 20:05:3324,72 °C65,44 %
2026-08-21 20:06:3224,71 °C65,48 %
2026-08-21 20:07:3324,73 °C65,37 %
2026-08-21 20:08:3224,72 °C65,36 %
2026-08-21 20:09:3224,71 °C65,41 %
2026-08-21 20:10:3224,74 °C65,42 %
2026-08-21 20:11:3224,70 °C65,39 %
2026-08-21 20:12:3224,70 °C65,38 %
2026-08-21 20:13:3224,68 °C65,37 %
2026-08-21 20:14:3224,69 °C65,38 %
2026-08-21 20:15:3224,68 °C65,43 %
2026-08-21 20:16:3224,69 °C65,39 %
2026-08-21 20:17:3224,67 °C65,41 %
2026-08-21 20:18:3224,69 °C65,39 %
2026-08-21 20:19:3224,69 °C65,39 %
2026-08-21 20:20:3324,70 °C65,37 %
2026-08-21 20:21:3224,67 °C65,34 %
2026-08-21 20:22:3224,68 °C65,32 %
2026-08-21 20:23:3224,66 °C65,38 %
2026-08-21 20:24:3224,67 °C65,40 %
2026-08-21 20:25:3224,66 °C65,38 %
2026-08-21 20:26:3224,63 °C65,43 %
2026-08-21 20:27:3424,66 °C65,36 %
2026-08-21 20:28:3224,65 °C65,36 %
2026-08-21 20:29:3224,64 °C65,37 %
2026-08-21 20:30:3224,65 °C65,35 %
2026-08-21 20:31:3324,65 °C65,33 %
2026-08-21 20:32:3224,65 °C65,35 %
2026-08-21 20:33:3224,66 °C65,34 %
2026-08-21 20:34:3224,65 °C65,33 %
2026-08-21 20:35:3224,66 °C65,32 %
2026-08-21 20:36:3224,65 °C65,34 %
2026-08-21 20:37:3224,62 °C65,41 %
2026-08-21 20:38:3224,64 °C65,41 %
2026-08-21 20:39:3424,63 °C65,36 %
2026-08-21 20:40:3724,61 °C65,36 %
2026-08-21 20:41:3224,63 °C65,40 %
2026-08-21 20:42:3224,64 °C65,41 %
2026-08-21 20:43:3224,64 °C65,38 %
2026-08-21 20:44:3524,64 °C65,41 %
2026-08-21 20:45:3224,62 °C65,37 %
2026-08-21 20:46:3224,64 °C65,40 %
2026-08-21 20:47:3224,63 °C65,37 %
2026-08-21 20:48:3224,61 °C65,40 %
2026-08-21 20:49:3324,62 °C65,43 %
2026-08-21 20:50:3224,60 °C65,44 %
2026-08-21 20:51:3224,63 °C65,44 %
2026-08-21 20:52:3224,62 °C65,47 %
2026-08-21 20:53:3324,64 °C65,48 %
2026-08-21 20:54:3224,63 °C65,41 %
2026-08-21 20:55:3224,62 °C65,42 %
2026-08-21 20:56:3224,63 °C65,42 %
2026-08-21 20:57:3324,60 °C65,47 %
2026-08-21 20:58:3224,60 °C65,49 %
2026-08-21 20:59:3224,60 °C65,49 %
2026-08-21 21:00:3224,59 °C65,55 %
2026-08-21 21:01:3224,59 °C65,46 %
2026-08-21 21:02:3224,60 °C65,50 %
2026-08-21 21:03:3224,60 °C65,51 %
2026-08-21 21:04:3224,57 °C65,52 %
2026-08-21 21:05:3224,58 °C65,58 %
2026-08-21 21:06:3224,54 °C65,62 %
2026-08-21 21:07:3224,54 °C65,68 %
2026-08-21 21:08:3424,53 °C65,74 %
2026-08-21 21:09:3224,52 °C65,78 %
2026-08-21 21:10:3224,51 °C65,83 %
2026-08-21 21:11:3324,54 °C65,87 %
2026-08-21 21:12:3224,55 °C65,90 %
2026-08-21 21:13:3224,56 °C65,91 %
2026-08-21 21:14:3224,55 °C65,94 %
2026-08-21 21:15:3224,57 °C65,92 %
2026-08-21 21:16:3224,57 °C65,97 %
2026-08-21 21:17:3324,56 °C66,00 %
2026-08-21 21:18:3224,59 °C66,00 %
2026-08-21 21:19:3224,60 °C66,06 %
2026-08-21 21:20:3224,60 °C66,04 %
2026-08-21 21:21:3424,62 °C66,04 %
2026-08-21 21:22:3324,61 °C66,08 %
2026-08-21 21:23:3224,61 °C66,08 %
2026-08-21 21:24:3224,62 °C66,12 %
2026-08-21 21:25:3224,62 °C66,15 %
2026-08-21 21:26:3224,61 °C66,17 %
2026-08-21 21:27:3224,62 °C66,23 %
2026-08-21 21:28:3224,63 °C66,20 %
2026-08-21 21:29:3224,62 °C66,27 %
2026-08-21 21:30:3324,63 °C66,31 %
2026-08-21 21:31:3224,65 °C66,32 %
2026-08-21 21:32:3424,65 °C66,40 %
2026-08-21 21:33:3224,67 °C66,40 %
2026-08-21 21:34:3224,64 °C66,45 %
2026-08-21 21:35:3224,62 °C66,49 %
2026-08-21 21:36:3224,65 °C66,53 %
2026-08-21 21:37:3224,61 °C66,48 %
2026-08-21 21:38:3324,60 °C66,56 %
2026-08-21 21:39:3324,60 °C66,58 %
2026-08-21 21:40:3324,56 °C66,61 %
2026-08-21 21:41:3324,59 °C66,65 %
2026-08-21 21:42:3324,55 °C66,67 %
2026-08-21 21:43:3224,58 °C66,75 %
2026-08-21 21:44:3324,55 °C66,77 %
2026-08-21 21:45:3324,53 °C66,81 %
2026-08-21 21:46:3324,54 °C66,88 %
2026-08-21 21:47:3324,53 °C66,88 %
2026-08-21 21:48:3324,52 °C66,91 %
2026-08-21 21:49:3324,51 °C66,97 %
2026-08-21 21:50:3224,50 °C66,98 %
2026-08-21 21:51:3324,51 °C67,02 %
2026-08-21 21:52:3324,50 °C67,05 %
2026-08-21 21:53:3324,49 °C67,09 %
2026-08-21 21:54:3324,48 °C67,10 %
2026-08-21 21:55:3324,47 °C67,13 %
2026-08-21 21:56:3324,48 °C67,18 %
2026-08-21 21:57:3424,47 °C67,17 %
2026-08-21 21:58:3424,47 °C67,19 %
2026-08-21 21:59:3324,47 °C67,24 %
2026-08-21 22:00:3424,45 °C67,26 %
2026-08-21 22:01:3324,44 °C67,27 %
2026-08-21 22:02:3324,44 °C67,30 %
2026-08-21 22:03:3324,45 °C67,27 %
2026-08-21 22:04:3524,46 °C67,32 %
2026-08-21 22:05:3324,47 °C67,33 %
2026-08-21 22:06:3324,46 °C67,37 %
2026-08-21 22:07:3324,48 °C67,34 %
2026-08-21 22:08:3324,50 °C67,34 %
2026-08-21 22:09:3424,49 °C67,36 %
2026-08-21 22:10:3324,47 °C67,35 %
2026-08-21 22:11:3324,47 °C67,34 %
2026-08-21 22:12:3324,47 °C67,36 %
2026-08-21 22:13:3324,46 °C67,36 %
2026-08-21 22:14:3324,44 °C67,38 %
2026-08-21 22:15:3324,44 °C67,38 %
2026-08-21 22:16:3324,43 °C67,39 %
2026-08-21 22:17:3324,41 °C67,42 %
2026-08-21 22:18:3324,39 °C67,47 %
2026-08-21 22:19:3324,39 °C67,48 %
2026-08-21 22:20:3324,35 °C67,47 %
2026-08-21 22:21:3324,36 °C67,53 %
2026-08-21 22:22:3324,35 °C67,55 %
2026-08-21 22:23:3324,37 °C67,57 %
2026-08-21 22:24:3324,34 °C67,59 %
2026-08-21 22:25:3324,34 °C67,60 %
2026-08-21 22:26:3324,34 °C67,61 %
2026-08-21 22:27:3324,32 °C67,63 %
2026-08-21 22:28:3324,34 °C67,61 %
2026-08-21 22:29:3324,33 °C67,61 %
2026-08-21 22:30:3324,34 °C67,62 %
2026-08-21 22:31:3324,33 °C67,61 %
2026-08-21 22:32:3324,31 °C67,60 %
2026-08-21 22:33:3424,34 °C67,63 %
2026-08-21 22:34:3424,31 °C67,65 %
2026-08-21 22:35:3324,30 °C67,66 %
2026-08-21 22:36:3324,31 °C67,66 %
2026-08-21 22:37:3324,29 °C67,67 %
2026-08-21 22:38:3524,30 °C67,70 %
2026-08-21 22:39:3324,27 °C67,70 %
2026-08-21 22:40:3324,28 °C67,74 %
2026-08-21 22:41:3324,27 °C67,76 %
2026-08-21 22:42:3324,27 °C67,78 %
2026-08-21 22:43:3324,26 °C67,78 %
2026-08-21 22:44:3324,26 °C67,79 %
2026-08-21 22:45:3324,21 °C67,78 %
2026-08-21 22:46:3324,25 °C67,82 %
2026-08-21 22:49:3324,24 °C67,85 %
2026-08-21 22:50:3324,24 °C67,86 %
2026-08-21 22:51:3324,26 °C67,85 %
2026-08-21 22:52:3324,26 °C67,85 %
2026-08-21 22:53:3724,26 °C67,82 %
2026-08-21 22:54:3324,25 °C67,84 %
2026-08-21 22:55:3324,27 °C67,84 %
2026-08-21 22:56:3424,27 °C67,88 %
2026-08-21 22:57:3324,25 °C67,87 %
2026-08-21 22:58:3324,28 °C67,88 %
2026-08-21 22:59:3324,26 °C67,88 %
2026-08-21 23:00:3324,24 °C67,87 %
2026-08-21 23:01:3324,24 °C67,88 %
2026-08-21 23:02:3324,22 °C67,88 %
2026-08-21 23:03:3324,27 °C67,90 %
2026-08-21 23:04:3324,23 °C67,91 %
2026-08-21 23:05:3324,20 °C67,87 %
2026-08-21 23:06:3324,18 °C67,85 %
2026-08-21 23:07:3324,19 °C67,87 %
2026-08-21 23:08:3324,15 °C67,88 %
2026-08-21 23:09:3324,11 °C67,88 %
2026-08-21 23:10:3324,10 °C67,93 %
2026-08-21 23:11:3324,08 °C67,93 %
2026-08-21 23:12:3324,07 °C67,93 %
2026-08-21 23:13:3324,08 °C67,93 %
2026-08-21 23:14:3324,05 °C67,94 %
2026-08-21 23:15:3324,02 °C67,99 %
2026-08-21 23:16:3324,01 °C67,94 %
2026-08-21 23:17:3423,96 °C67,99 %
2026-08-21 23:18:3323,96 °C68,00 %
2026-08-21 23:19:3323,96 °C68,03 %
2026-08-21 23:21:4223,92 °C67,98 %
2026-08-21 23:22:4423,93 °C68,01 %
2026-08-21 23:23:4223,92 °C67,99 %
2026-08-21 23:24:4223,89 °C67,98 %
2026-08-21 23:25:4423,88 °C68,01 %
2026-08-21 23:26:4323,89 °C67,99 %
2026-08-21 23:27:4323,87 °C68,01 %
2026-08-21 23:28:4223,86 °C68,01 %
2026-08-21 23:29:4223,85 °C68,00 %
2026-08-21 23:30:4523,86 °C67,99 %
2026-08-21 23:31:4223,83 °C67,96 %
2026-08-21 23:32:4223,84 °C67,97 %
2026-08-21 23:33:4223,83 °C67,98 %
2026-08-21 23:34:4223,80 °C67,98 %
2026-08-21 23:35:4223,79 °C68,03 %
2026-08-21 23:36:4223,77 °C67,98 %
2026-08-21 23:37:4223,76 °C67,99 %
2026-08-21 23:38:4223,76 °C68,00 %
2026-08-21 23:39:4223,76 °C68,02 %
2026-08-21 23:40:4223,74 °C68,00 %
2026-08-21 23:41:4223,72 °C68,03 %
2026-08-21 23:42:4323,70 °C68,02 %
2026-08-21 23:43:4223,69 °C67,98 %
2026-08-21 23:44:4223,70 °C67,97 %
2026-08-21 23:45:4523,66 °C67,97 %
2026-08-21 23:46:4223,65 °C68,01 %
2026-08-21 23:47:4223,66 °C68,02 %
2026-08-21 23:48:4223,63 °C67,99 %
2026-08-21 23:49:4223,62 °C68,00 %
2026-08-21 23:50:4223,60 °C67,98 %
2026-08-21 23:51:4223,58 °C67,97 %
2026-08-21 23:52:4223,55 °C68,01 %
2026-08-21 23:53:4223,57 °C68,02 %
2026-08-21 23:54:4223,53 °C68,03 %
2026-08-21 23:55:4223,53 °C68,01 %
2026-08-21 23:56:4223,52 °C67,99 %
2026-08-21 23:57:4223,49 °C67,99 %
2026-08-21 23:58:4323,49 °C68,01 %
2026-08-21 23:59:4223,47 °C67,97 %
2026-08-22 00:00:4223,46 °C67,98 %
2026-08-22 00:01:4223,49 °C68,01 %
2026-08-22 00:02:4223,45 °C67,93 %
2026-08-22 00:03:4223,44 °C67,91 %
2026-08-22 00:04:4223,42 °C67,96 %
2026-08-22 00:05:4223,43 °C67,94 %
2026-08-22 00:06:4223,42 °C67,90 %
2026-08-22 00:07:4223,42 °C67,90 %
2026-08-22 00:08:4223,40 °C67,90 %
2026-08-22 00:09:4223,39 °C67,91 %
2026-08-22 00:10:4423,41 °C67,95 %
2026-08-22 00:11:4223,39 °C67,94 %
2026-08-22 00:12:4223,39 °C67,91 %
2026-08-22 00:13:4223,40 °C67,96 %
2026-08-22 00:14:4223,40 °C67,97 %
2026-08-22 00:15:4223,39 °C67,94 %
2026-08-22 00:16:4223,39 °C67,98 %
2026-08-22 00:17:4223,41 °C67,91 %
2026-08-22 00:18:4223,38 °C67,89 %
2026-08-22 00:19:4223,34 °C67,89 %
2026-08-22 00:20:4223,36 °C67,89 %
2026-08-22 00:21:4223,34 °C67,84 %
2026-08-22 00:22:4223,33 °C67,88 %
2026-08-22 00:23:4223,32 °C67,91 %
2026-08-22 00:24:4223,30 °C67,91 %
2026-08-22 00:25:4323,30 °C67,85 %
2026-08-22 00:26:4223,30 °C67,87 %
2026-08-22 00:27:4223,28 °C67,87 %
2026-08-22 00:28:4223,27 °C67,86 %
2026-08-22 00:29:4223,25 °C67,83 %
2026-08-22 00:30:4223,24 °C67,86 %
2026-08-22 00:31:4223,23 °C67,88 %
2026-08-22 00:32:4223,23 °C67,87 %
2026-08-22 00:33:4223,23 °C67,87 %
2026-08-22 00:34:4223,20 °C67,88 %
2026-08-22 00:35:4223,19 °C67,88 %
2026-08-22 00:36:4223,19 °C67,89 %
2026-08-22 00:37:4223,17 °C67,88 %
2026-08-22 00:38:4223,14 °C67,89 %
2026-08-22 00:39:4523,13 °C67,91 %
2026-08-22 00:40:4223,14 °C67,91 %
2026-08-22 00:41:4223,14 °C67,94 %
2026-08-22 00:42:4223,12 °C67,91 %
2026-08-22 00:43:4223,11 °C67,92 %
2026-08-22 00:44:4223,07 °C67,95 %
2026-08-22 00:45:4223,09 °C67,94 %
2026-08-22 00:46:4223,07 °C67,92 %
2026-08-22 00:47:4223,07 °C67,92 %
2026-08-22 00:48:4223,05 °C67,90 %
2026-08-22 00:49:4223,06 °C67,90 %
2026-08-22 00:50:4223,05 °C67,91 %
2026-08-22 00:51:4223,04 °C67,90 %
2026-08-22 00:52:4323,03 °C67,90 %
2026-08-22 00:53:4623,00 °C67,89 %
2026-08-22 00:54:4223,01 °C67,91 %
2026-08-22 00:55:4223,01 °C67,90 %
2026-08-22 00:56:4223,00 °C67,89 %
2026-08-22 00:57:4222,98 °C67,90 %
2026-08-22 00:58:4222,97 °C67,89 %
2026-08-22 00:59:4223,00 °C67,91 %
2026-08-22 01:00:4222,98 °C67,91 %
2026-08-22 01:01:4222,97 °C67,92 %
2026-08-22 01:02:4222,93 °C67,93 %
2026-08-22 01:03:4222,95 °C67,97 %
2026-08-22 01:04:4222,92 °C67,95 %
2026-08-22 01:05:4222,92 °C67,96 %
2026-08-22 01:06:4222,90 °C67,98 %
2026-08-22 01:07:4222,89 °C67,96 %
2026-08-22 01:08:4222,90 °C67,97 %
2026-08-22 01:09:4222,92 °C67,98 %
2026-08-22 01:10:4522,89 °C67,98 %
2026-08-22 01:11:4222,89 °C67,95 %
2026-08-22 01:12:4222,87 °C67,97 %
2026-08-22 01:13:4222,89 °C67,96 %
2026-08-22 01:14:4222,89 °C67,97 %
2026-08-22 01:15:4222,86 °C67,96 %
2026-08-22 01:16:4222,88 °C67,99 %
2026-08-22 01:17:4222,86 °C67,98 %
2026-08-22 01:18:4422,85 °C67,99 %
2026-08-22 01:19:5122,83 °C67,98 %
2026-08-22 01:20:5122,83 °C67,99 %
2026-08-22 01:21:5122,82 °C68,01 %
2026-08-22 01:22:5122,83 °C68,01 %
2026-08-22 01:23:5122,82 °C67,98 %
2026-08-22 01:24:5122,83 °C68,00 %
2026-08-22 01:25:5122,83 °C68,00 %
2026-08-22 01:26:5122,82 °C68,00 %
2026-08-22 01:27:5122,80 °C67,99 %
2026-08-22 01:28:5122,82 °C68,00 %
2026-08-22 01:29:5122,81 °C68,00 %
2026-08-22 01:30:5122,80 °C68,01 %
2026-08-22 01:31:5122,81 °C68,00 %
2026-08-22 01:32:5122,81 °C68,01 %
2026-08-22 01:33:5122,79 °C68,01 %
2026-08-22 01:34:5122,80 °C68,03 %
2026-08-22 01:35:5122,79 °C68,00 %
2026-08-22 01:36:5122,79 °C68,02 %
2026-08-22 01:37:5122,76 °C68,03 %
2026-08-22 01:38:5122,77 °C68,05 %
2026-08-22 01:39:5122,76 °C68,02 %
2026-08-22 01:40:5122,75 °C68,01 %
2026-08-22 01:41:5122,73 °C68,05 %
2026-08-22 01:42:5122,72 °C68,04 %
2026-08-22 01:43:5122,70 °C68,05 %
2026-08-22 01:44:5122,72 °C68,07 %
2026-08-22 01:46:5922,70 °C68,08 %
2026-08-22 01:47:5822,69 °C68,08 %
2026-08-22 01:48:5922,67 °C68,07 %
2026-08-22 01:49:5822,70 °C68,08 %
2026-08-22 01:51:0222,67 °C68,08 %
2026-08-22 01:51:5822,67 °C68,08 %
2026-08-22 01:52:5822,66 °C68,09 %
2026-08-22 01:53:5822,67 °C68,04 %
2026-08-22 01:54:5822,65 °C68,06 %
2026-08-22 01:55:5822,62 °C68,04 %
2026-08-22 01:56:5822,62 °C68,11 %
2026-08-22 01:57:5822,60 °C68,08 %
2026-08-22 01:58:5822,60 °C68,09 %
2026-08-22 01:59:5822,59 °C68,12 %
2026-08-22 02:00:5822,59 °C68,10 %
2026-08-22 02:01:5822,56 °C68,13 %
2026-08-22 02:02:5822,57 °C68,09 %
2026-08-22 02:04:0122,58 °C68,09 %
2026-08-22 02:04:5822,58 °C68,08 %
2026-08-22 02:05:5822,58 °C68,11 %
2026-08-22 02:06:5822,59 °C68,10 %
2026-08-22 02:07:5822,58 °C68,07 %
2026-08-22 02:08:5822,59 °C68,10 %
2026-08-22 02:09:5822,58 °C68,09 %
2026-08-22 02:10:5822,56 °C68,08 %
2026-08-22 02:11:5822,58 °C68,09 %
2026-08-22 02:12:5822,58 °C68,10 %
2026-08-22 02:13:5822,57 °C68,06 %
2026-08-22 02:14:5822,57 °C68,05 %
2026-08-22 02:15:5822,55 °C68,08 %
2026-08-22 02:16:5822,57 °C68,10 %
2026-08-22 02:17:5822,57 °C68,09 %
2026-08-22 02:18:5822,56 °C68,07 %
2026-08-22 02:19:5922,54 °C68,09 %
2026-08-22 02:20:5922,53 °C68,10 %
2026-08-22 02:21:5822,52 °C68,11 %
2026-08-22 02:22:5822,52 °C68,12 %
2026-08-22 02:23:5822,51 °C68,13 %
2026-08-22 02:24:5822,53 °C68,12 %
2026-08-22 02:25:5822,51 °C68,13 %
2026-08-22 02:26:5822,51 °C68,11 %
2026-08-22 02:27:5822,50 °C68,12 %
2026-08-22 02:28:5822,48 °C68,11 %
2026-08-22 02:29:5822,48 °C68,11 %
2026-08-22 02:30:5822,48 °C68,09 %
2026-08-22 02:31:5822,50 °C68,12 %
2026-08-22 02:32:5822,49 °C68,12 %
2026-08-22 02:33:5822,49 °C68,07 %
2026-08-22 02:34:5922,48 °C68,09 %
2026-08-22 02:35:5922,49 °C68,11 %
2026-08-22 02:36:5822,48 °C68,09 %
2026-08-22 02:37:5822,48 °C68,10 %
2026-08-22 02:38:5822,48 °C68,11 %
2026-08-22 02:39:5822,46 °C68,10 %
2026-08-22 02:40:5822,44 °C68,10 %
2026-08-22 02:41:5822,45 °C68,09 %
2026-08-22 02:42:5822,46 °C68,15 %
2026-08-22 02:43:5822,43 °C68,11 %
2026-08-22 02:44:5822,45 °C68,12 %
2026-08-22 02:45:5822,43 °C68,11 %
2026-08-22 02:47:0122,44 °C68,13 %
2026-08-22 02:47:5822,40 °C68,12 %
2026-08-22 02:48:5822,41 °C68,12 %
2026-08-22 02:49:5822,42 °C68,13 %
2026-08-22 02:50:5822,43 °C68,15 %
2026-08-22 02:51:5822,41 °C68,16 %
2026-08-22 02:52:5822,42 °C68,16 %
2026-08-22 02:53:5822,41 °C68,16 %
2026-08-22 02:54:5822,40 °C68,16 %
2026-08-22 02:55:5822,38 °C68,16 %
2026-08-22 02:56:5822,40 °C68,14 %
2026-08-22 02:57:5822,41 °C68,16 %
2026-08-22 02:59:0122,39 °C68,14 %
2026-08-22 02:59:5822,38 °C68,13 %
2026-08-22 03:01:5822,37 °C68,15 %
2026-08-22 03:02:5822,39 °C68,14 %
2026-08-22 03:03:5822,39 °C68,15 %
2026-08-22 03:04:5822,37 °C68,15 %
2026-08-22 03:05:5822,36 °C68,14 %
2026-08-22 03:06:5822,37 °C68,13 %
2026-08-22 03:07:5822,38 °C68,18 %
2026-08-22 03:08:5822,35 °C68,18 %
2026-08-22 03:09:5822,35 °C68,17 %
2026-08-22 03:10:5822,32 °C68,16 %
2026-08-22 03:11:5922,34 °C68,17 %
2026-08-22 03:12:5822,31 °C68,18 %
2026-08-22 03:13:5822,32 °C68,19 %
2026-08-22 03:14:5822,32 °C68,18 %
2026-08-22 03:15:5822,31 °C68,20 %
2026-08-22 03:16:5822,31 °C68,20 %
2026-08-22 03:17:5822,32 °C68,21 %
2026-08-22 03:18:5822,31 °C68,16 %
2026-08-22 03:19:5822,32 °C68,17 %
2026-08-22 03:20:5822,34 °C68,20 %
2026-08-22 03:21:5822,35 °C68,19 %
2026-08-22 03:22:5822,34 °C68,17 %
2026-08-22 03:23:5822,35 °C68,19 %
2026-08-22 03:24:5822,32 °C68,20 %
2026-08-22 03:26:0122,34 °C68,16 %
2026-08-22 03:26:5822,37 °C68,19 %
2026-08-22 03:27:5822,36 °C68,19 %
2026-08-22 03:28:5822,37 °C68,19 %
2026-08-22 03:29:5822,37 °C68,20 %
2026-08-22 03:30:5822,36 °C68,20 %
2026-08-22 03:31:5822,37 °C68,22 %
2026-08-22 03:32:5822,38 °C68,20 %
2026-08-22 03:33:5822,38 °C68,20 %
2026-08-22 03:34:5822,40 °C68,22 %
2026-08-22 03:35:5822,38 °C68,22 %
2026-08-22 03:36:5822,37 °C68,22 %
2026-08-22 03:37:5822,40 °C68,22 %
2026-08-22 03:38:5822,42 °C68,22 %
2026-08-22 03:39:5822,40 °C68,20 %
2026-08-22 03:40:5822,40 °C68,22 %
2026-08-22 03:41:5822,43 °C68,22 %
2026-08-22 03:42:5822,42 °C68,23 %
2026-08-22 03:43:5822,42 °C68,23 %
2026-08-22 03:44:5822,43 °C68,25 %
2026-08-22 03:45:5822,43 °C68,26 %
2026-08-22 03:46:5822,44 °C68,24 %
2026-08-22 03:47:5822,43 °C68,23 %
2026-08-22 03:48:5822,43 °C68,25 %
2026-08-22 03:49:5822,44 °C68,26 %
2026-08-22 03:50:5822,43 °C68,26 %
2026-08-22 03:51:5922,42 °C68,28 %
2026-08-22 03:52:5922,42 °C68,26 %
2026-08-22 03:54:0222,40 °C68,30 %
2026-08-22 03:55:0122,39 °C68,32 %
2026-08-22 03:55:5822,38 °C68,28 %
2026-08-22 03:56:5822,38 °C68,29 %
2026-08-22 03:57:5822,37 °C68,33 %
2026-08-22 03:58:5822,38 °C68,31 %
2026-08-22 03:59:5822,37 °C68,32 %
2026-08-22 04:00:5822,33 °C68,31 %
2026-08-22 04:01:5822,34 °C68,32 %
2026-08-22 04:02:5822,33 °C68,33 %
2026-08-22 04:03:5822,33 °C68,35 %
2026-08-22 04:04:5822,32 °C68,36 %
2026-08-22 04:05:5822,34 °C68,34 %
2026-08-22 04:06:5822,35 °C68,33 %
2026-08-22 04:07:5822,33 °C68,32 %
2026-08-22 04:08:5822,31 °C68,32 %
2026-08-22 04:09:5822,31 °C68,34 %
2026-08-22 04:10:5822,31 °C68,37 %
2026-08-22 04:11:5822,30 °C68,35 %
2026-08-22 04:12:5822,29 °C68,36 %
2026-08-22 04:13:5822,30 °C68,36 %
2026-08-22 04:14:5822,31 °C68,37 %
2026-08-22 04:15:5822,30 °C68,36 %
2026-08-22 04:16:5822,28 °C68,36 %
2026-08-22 04:17:5822,27 °C68,36 %
2026-08-22 04:18:5822,29 °C68,34 %
2026-08-22 04:19:5822,25 °C68,31 %
2026-08-22 04:20:5822,28 °C68,36 %
2026-08-22 04:21:5822,26 °C68,35 %
2026-08-22 04:22:5822,24 °C68,37 %
2026-08-22 04:23:5822,22 °C68,35 %
2026-08-22 04:25:0322,24 °C68,36 %
2026-08-22 04:25:5822,22 °C68,35 %
2026-08-22 04:27:0022,22 °C68,36 %
2026-08-22 04:27:5822,20 °C68,32 %
2026-08-22 04:29:0022,19 °C68,39 %
2026-08-22 04:29:5822,17 °C68,38 %
2026-08-22 04:30:5822,17 °C68,39 %
2026-08-22 04:31:5822,17 °C68,37 %
2026-08-22 04:32:5822,15 °C68,37 %
2026-08-22 04:33:5822,13 °C68,38 %
2026-08-22 04:34:5822,17 °C68,38 %
2026-08-22 04:35:5822,16 °C68,40 %
2026-08-22 04:36:5822,15 °C68,39 %
2026-08-22 04:37:5822,15 °C68,35 %
2026-08-22 04:38:5822,14 °C68,36 %
2026-08-22 04:39:5822,16 °C68,38 %
2026-08-22 04:40:5822,13 °C68,36 %
2026-08-22 04:41:5822,13 °C68,36 %
2026-08-22 04:42:5822,13 °C68,37 %
2026-08-22 04:43:5822,14 °C68,35 %
2026-08-22 04:44:5822,12 °C68,37 %
2026-08-22 04:45:5822,14 °C68,35 %
2026-08-22 04:46:5822,13 °C68,35 %
2026-08-22 04:47:5822,12 °C68,34 %
2026-08-22 04:48:5822,15 °C68,35 %
2026-08-22 04:49:5822,13 °C68,33 %
2026-08-22 04:50:5822,09 °C68,32 %
2026-08-22 04:51:5822,14 °C68,34 %
2026-08-22 04:52:5822,09 °C68,31 %
2026-08-22 04:53:5822,09 °C68,31 %
2026-08-22 04:54:5922,11 °C68,33 %
2026-08-22 04:55:5922,11 °C68,34 %
2026-08-22 04:56:5922,10 °C68,32 %
2026-08-22 04:57:5822,11 °C68,32 %
2026-08-22 04:58:5922,08 °C68,32 %
2026-08-22 04:59:5822,08 °C68,32 %
2026-08-22 05:00:5822,08 °C68,32 %
2026-08-22 05:01:5822,07 °C68,33 %
2026-08-22 05:02:5822,07 °C68,34 %
2026-08-22 05:03:5822,07 °C68,36 %
2026-08-22 05:04:5822,06 °C68,33 %
2026-08-22 05:05:5822,05 °C68,34 %
2026-08-22 05:06:5822,07 °C68,34 %
2026-08-22 05:07:5822,03 °C68,33 %
2026-08-22 05:08:5822,04 °C68,34 %
2026-08-22 05:09:5822,05 °C68,34 %
2026-08-22 05:10:5922,04 °C68,34 %
2026-08-22 05:11:5822,05 °C68,32 %
2026-08-22 05:12:5822,05 °C68,34 %
2026-08-22 05:13:5822,04 °C68,31 %
2026-08-22 05:14:5822,02 °C68,33 %
2026-08-22 05:15:5822,06 °C68,35 %
2026-08-22 05:16:5822,02 °C68,34 %
2026-08-22 05:18:0122,04 °C68,35 %
2026-08-22 05:18:5822,03 °C68,34 %
2026-08-22 05:19:5822,03 °C68,36 %
2026-08-22 05:21:0222,04 °C68,37 %
2026-08-22 05:22:0622,03 °C68,35 %
2026-08-22 05:23:0422,03 °C68,34 %
2026-08-22 05:24:0422,04 °C68,35 %
2026-08-22 05:25:0422,05 °C68,37 %
2026-08-22 05:26:0422,03 °C68,36 %
2026-08-22 05:27:0422,03 °C68,37 %
2026-08-22 05:28:0422,04 °C68,35 %
2026-08-22 05:29:0422,04 °C68,36 %
2026-08-22 05:30:0422,04 °C68,36 %
2026-08-22 05:31:0422,05 °C68,36 %
2026-08-22 05:32:0422,04 °C68,33 %
2026-08-22 05:33:0422,05 °C68,33 %
2026-08-22 05:34:0522,06 °C68,33 %
2026-08-22 05:35:0422,06 °C68,32 %
2026-08-22 05:36:0422,07 °C68,32 %
2026-08-22 05:37:0422,05 °C68,35 %
2026-08-22 05:38:0422,09 °C68,31 %
2026-08-22 05:39:0422,06 °C68,32 %
2026-08-22 05:40:0422,08 °C68,30 %
2026-08-22 05:41:0422,09 °C68,30 %
2026-08-22 05:42:0422,09 °C68,32 %
2026-08-22 05:43:0422,08 °C68,31 %
2026-08-22 05:44:0422,10 °C68,35 %
2026-08-22 05:45:0422,09 °C68,35 %
2026-08-22 05:46:0422,12 °C68,35 %
2026-08-22 05:47:0422,10 °C68,34 %
2026-08-22 05:48:0522,11 °C68,33 %
2026-08-22 05:49:0822,11 °C68,33 %
2026-08-22 05:50:0422,10 °C68,33 %
2026-08-22 05:51:0422,10 °C68,34 %
2026-08-22 05:52:0422,12 °C68,37 %
2026-08-22 05:53:0422,11 °C68,37 %
2026-08-22 05:54:0422,12 °C68,34 %
2026-08-22 05:55:0422,12 °C68,38 %
2026-08-22 05:56:0422,12 °C68,38 %
2026-08-22 05:57:0422,13 °C68,39 %
2026-08-22 05:58:0422,14 °C68,39 %
2026-08-22 05:59:0422,13 °C68,38 %
2026-08-22 06:00:0522,13 °C68,37 %
2026-08-22 06:01:0422,16 °C68,38 %
2026-08-22 06:02:0422,16 °C68,39 %
2026-08-22 06:03:0422,15 °C68,36 %
2026-08-22 06:04:0422,13 °C68,35 %
2026-08-22 06:05:0422,16 °C68,38 %
2026-08-22 06:06:0422,13 °C68,38 %
2026-08-22 06:07:0422,17 °C68,39 %
2026-08-22 06:08:0422,15 °C68,38 %
2026-08-22 06:09:0422,16 °C68,36 %
2026-08-22 06:10:0422,16 °C68,39 %
2026-08-22 06:11:0422,14 °C68,38 %
2026-08-22 06:12:0422,17 °C68,36 %
2026-08-22 06:13:0422,16 °C68,40 %
2026-08-22 06:14:0422,13 °C68,40 %
2026-08-22 06:15:0422,15 °C68,41 %
2026-08-22 06:16:0422,17 °C68,42 %
2026-08-22 06:17:0522,17 °C68,42 %
2026-08-22 06:18:0422,18 °C68,42 %
2026-08-22 06:19:0422,16 °C68,44 %
2026-08-22 06:20:0422,17 °C68,44 %
2026-08-22 06:21:0422,17 °C68,45 %
2026-08-22 06:22:0422,17 °C68,43 %
2026-08-22 06:23:0422,17 °C68,44 %
2026-08-22 06:24:0422,17 °C68,47 %
2026-08-22 06:25:0422,17 °C68,45 %
2026-08-22 06:26:0422,16 °C68,48 %
2026-08-22 06:27:0422,17 °C68,46 %
2026-08-22 06:28:0422,16 °C68,46 %
2026-08-22 06:29:0422,16 °C68,45 %
2026-08-22 06:30:0522,17 °C68,46 %
2026-08-22 06:31:0422,16 °C68,48 %
2026-08-22 06:32:0422,16 °C68,50 %
2026-08-22 06:33:0422,17 °C68,50 %
2026-08-22 06:34:0422,17 °C68,48 %
2026-08-22 06:35:0422,17 °C68,52 %
2026-08-22 06:36:0422,17 °C68,51 %
2026-08-22 06:37:0422,18 °C68,48 %
2026-08-22 06:38:0422,19 °C68,53 %
2026-08-22 06:39:0422,19 °C68,53 %
2026-08-22 06:40:0422,19 °C68,53 %
2026-08-22 06:41:0422,17 °C68,50 %
2026-08-22 06:42:0422,19 °C68,53 %
2026-08-22 06:43:0422,17 °C68,49 %
2026-08-22 06:44:0522,19 °C68,52 %
2026-08-22 06:45:0822,18 °C68,52 %
2026-08-22 06:46:0422,19 °C68,53 %
2026-08-22 06:47:0722,17 °C68,53 %
2026-08-22 06:48:0422,18 °C68,56 %
2026-08-22 06:49:0522,20 °C68,54 %
2026-08-22 06:50:0422,20 °C68,55 %
2026-08-22 06:51:0422,20 °C68,56 %
2026-08-22 06:52:0422,22 °C68,55 %
2026-08-22 06:53:0422,17 °C68,54 %
2026-08-22 06:54:0422,20 °C68,54 %
2026-08-22 06:55:0422,21 °C68,55 %
2026-08-22 06:56:0422,17 °C68,55 %
2026-08-22 06:57:0422,21 °C68,57 %
2026-08-22 06:58:0422,21 °C68,57 %
2026-08-22 06:59:0422,19 °C68,55 %
2026-08-22 07:00:0422,20 °C68,57 %
2026-08-22 07:01:0422,18 °C68,55 %
2026-08-22 07:02:0422,19 °C68,60 %
2026-08-22 07:03:0422,20 °C68,57 %
2026-08-22 07:04:0422,19 °C68,57 %
2026-08-22 07:05:0422,19 °C68,60 %
2026-08-22 07:06:0422,19 °C68,57 %
2026-08-22 07:07:0422,20 °C68,58 %
2026-08-22 07:08:0422,18 °C68,58 %
2026-08-22 07:09:0422,19 °C68,61 %
2026-08-22 07:10:0422,19 °C68,62 %
2026-08-22 07:11:0422,19 °C68,64 %
2026-08-22 07:12:0422,19 °C68,63 %
2026-08-22 07:13:0422,21 °C68,64 %
2026-08-22 07:14:0522,19 °C68,62 %
2026-08-22 07:15:0422,19 °C68,62 %
2026-08-22 07:16:0422,20 °C68,64 %
2026-08-22 07:17:0422,21 °C68,62 %
2026-08-22 07:18:0422,20 °C68,62 %
2026-08-22 07:19:0422,18 °C68,59 %
2026-08-22 07:20:0422,20 °C68,61 %
2026-08-22 07:21:0422,19 °C68,57 %
2026-08-22 07:22:0422,20 °C68,60 %
2026-08-22 07:23:0422,19 °C68,60 %
2026-08-22 07:24:0422,19 °C68,60 %
2026-08-22 07:25:0422,19 °C68,61 %
2026-08-22 07:26:0522,21 °C68,64 %
2026-08-22 07:27:0422,21 °C68,60 %
2026-08-22 07:28:0422,19 °C68,61 %
2026-08-22 07:29:0422,18 °C68,60 %
2026-08-22 07:30:0422,20 °C68,62 %
2026-08-22 07:31:0422,18 °C68,62 %
2026-08-22 07:32:0422,19 °C68,66 %
2026-08-22 07:33:0422,20 °C68,65 %
2026-08-22 07:34:0422,19 °C68,63 %
2026-08-22 07:35:0422,17 °C68,64 %
2026-08-22 07:36:0422,17 °C68,65 %
2026-08-22 07:37:0422,18 °C68,65 %
2026-08-22 07:38:0422,18 °C68,66 %
2026-08-22 07:39:0422,20 °C68,66 %
2026-08-22 07:41:1222,19 °C68,69 %
2026-08-22 07:42:1222,17 °C68,69 %
2026-08-22 07:43:1422,19 °C68,68 %
2026-08-22 07:44:1222,21 °C68,68 %
2026-08-22 07:45:1322,19 °C68,67 %
2026-08-22 07:46:1222,20 °C68,67 %
2026-08-22 07:47:1222,20 °C68,64 %
2026-08-22 07:48:1222,19 °C68,68 %
2026-08-22 07:49:1222,19 °C68,68 %
2026-08-22 07:50:1222,19 °C68,69 %
2026-08-22 07:51:1222,20 °C68,65 %
2026-08-22 07:52:1222,20 °C68,68 %
2026-08-22 07:53:1222,19 °C68,68 %
2026-08-22 07:54:1222,21 °C68,68 %
2026-08-22 07:55:1222,19 °C68,67 %
2026-08-22 07:56:1222,20 °C68,71 %
2026-08-22 07:57:1222,21 °C68,68 %
2026-08-22 07:58:1222,18 °C68,69 %
2026-08-22 07:59:1222,21 °C68,71 %
2026-08-22 08:00:1222,22 °C68,72 %
2026-08-22 08:01:1222,21 °C68,71 %
2026-08-22 08:02:1222,21 °C68,72 %
2026-08-22 08:03:1222,23 °C68,70 %
2026-08-22 08:04:1222,22 °C68,70 %
2026-08-22 08:05:1222,22 °C68,70 %
2026-08-22 08:06:1222,22 °C68,64 %
2026-08-22 08:07:1222,21 °C68,59 %
2026-08-22 08:08:1222,22 °C68,61 %
2026-08-22 08:09:1222,23 °C68,59 %
2026-08-22 08:10:1222,23 °C68,58 %
2026-08-22 08:11:1222,25 °C68,55 %
2026-08-22 08:12:1222,26 °C68,57 %
2026-08-22 08:13:1222,25 °C68,56 %
2026-08-22 08:14:1222,27 °C68,59 %
2026-08-22 08:15:1222,25 °C68,55 %
2026-08-22 08:16:1222,27 °C68,58 %
2026-08-22 08:17:1222,25 °C68,57 %
2026-08-22 08:18:1222,27 °C68,58 %
2026-08-22 08:19:1222,28 °C68,56 %
2026-08-22 08:20:1222,27 °C68,56 %
2026-08-22 08:21:1222,27 °C68,59 %
2026-08-22 08:22:1222,26 °C68,59 %
2026-08-22 08:23:1322,30 °C68,59 %
2026-08-22 08:24:1222,28 °C68,59 %
2026-08-22 08:25:1222,31 °C68,56 %
2026-08-22 08:26:1222,29 °C68,57 %
2026-08-22 08:27:1222,29 °C68,57 %
2026-08-22 08:28:1222,30 °C68,58 %
2026-08-22 08:29:1222,29 °C68,53 %
2026-08-22 08:30:1222,31 °C68,56 %
2026-08-22 08:31:1222,32 °C68,53 %
2026-08-22 08:32:1222,32 °C68,56 %
2026-08-22 08:33:1222,30 °C68,52 %
2026-08-22 08:34:1222,32 °C68,53 %
2026-08-22 08:35:1222,31 °C68,55 %
2026-08-22 08:36:1222,33 °C68,53 %
2026-08-22 08:37:1222,32 °C68,52 %
2026-08-22 08:38:1222,32 °C68,52 %
2026-08-22 08:39:1222,32 °C68,53 %
2026-08-22 08:40:1222,33 °C68,47 %
2026-08-22 08:41:1222,32 °C68,46 %
2026-08-22 08:42:1222,31 °C68,43 %
2026-08-22 08:43:1222,31 °C68,46 %
2026-08-22 08:44:1222,31 °C68,42 %
2026-08-22 08:45:1222,32 °C68,43 %
2026-08-22 08:46:1222,34 °C68,43 %
2026-08-22 08:47:1322,34 °C68,44 %
2026-08-22 08:48:1322,34 °C68,39 %
2026-08-22 08:49:1222,36 °C68,38 %
2026-08-22 08:50:1222,38 °C68,35 %
2026-08-22 08:51:1222,39 °C68,33 %
2026-08-22 08:52:1222,37 °C68,34 %
2026-08-22 08:53:1222,38 °C68,30 %
2026-08-22 08:54:1222,40 °C68,28 %
2026-08-22 08:55:1222,37 °C68,24 %
2026-08-22 08:56:1222,41 °C68,28 %
2026-08-22 08:57:1222,40 °C68,27 %
2026-08-22 08:58:1222,42 °C68,25 %
2026-08-22 08:59:1222,39 °C68,23 %
2026-08-22 09:00:1222,42 °C68,21 %
2026-08-22 09:01:1222,42 °C68,24 %
2026-08-22 09:02:1222,42 °C68,22 %
2026-08-22 09:03:1222,43 °C68,20 %
2026-08-22 09:04:1222,43 °C68,16 %
2026-08-22 09:05:1222,44 °C68,15 %
2026-08-22 09:06:1222,44 °C68,16 %
2026-08-22 09:07:1222,44 °C68,14 %
2026-08-22 09:08:1222,43 °C68,12 %
2026-08-22 09:09:1222,43 °C68,09 %
2026-08-22 09:10:1222,44 °C68,12 %
2026-08-22 09:11:1222,43 °C68,08 %
2026-08-22 09:12:1222,44 °C68,09 %
2026-08-22 09:13:1222,42 °C68,09 %
2026-08-22 09:14:1222,43 °C68,09 %
2026-08-22 09:15:1222,47 °C68,10 %
2026-08-22 09:16:1222,46 °C68,08 %
2026-08-22 09:17:1222,45 °C68,08 %
2026-08-22 09:18:1222,48 °C68,04 %
2026-08-22 09:19:1222,46 °C68,03 %
2026-08-22 09:20:1222,47 °C67,99 %
2026-08-22 09:21:1222,46 °C67,97 %
2026-08-22 09:22:1222,46 °C67,98 %
2026-08-22 09:23:1222,45 °C67,98 %
2026-08-22 09:24:1622,48 °C67,93 %
2026-08-22 09:25:1222,47 °C67,95 %
2026-08-22 09:26:1222,48 °C67,95 %
2026-08-22 09:27:1222,46 °C67,98 %
2026-08-22 09:28:1222,46 °C67,93 %
2026-08-22 09:29:1222,47 °C67,93 %
2026-08-22 09:30:1222,46 °C67,94 %
2026-08-22 09:31:1222,49 °C67,94 %
2026-08-22 09:32:1222,49 °C67,93 %
2026-08-22 09:33:1222,49 °C67,96 %
2026-08-22 09:34:1222,50 °C67,97 %
2026-08-22 09:35:1222,49 °C67,98 %
2026-08-22 09:36:1322,50 °C67,97 %
2026-08-22 09:37:1222,50 °C67,97 %
2026-08-22 09:38:1222,51 °C67,98 %
2026-08-22 09:39:1222,49 °C68,00 %
2026-08-22 09:40:1222,50 °C67,98 %
2026-08-22 09:41:1222,50 °C67,99 %
2026-08-22 09:42:1222,48 °C68,00 %
2026-08-22 09:43:1222,47 °C68,00 %
2026-08-22 09:44:1222,50 °C67,97 %
2026-08-22 09:45:1222,48 °C67,96 %
2026-08-22 09:46:1222,46 °C67,99 %
2026-08-22 09:47:1222,48 °C67,94 %
2026-08-22 09:48:1322,47 °C67,98 %
2026-08-22 09:49:1322,45 °C67,95 %
2026-08-22 09:50:1222,48 °C68,00 %
2026-08-22 09:51:1222,47 °C67,95 %
2026-08-22 09:52:1222,47 °C68,00 %
2026-08-22 09:53:1322,44 °C67,98 %
2026-08-22 09:54:1222,46 °C67,99 %
2026-08-22 09:55:1222,46 °C67,98 %
2026-08-22 09:56:1222,46 °C67,97 %
2026-08-22 09:57:1222,46 °C67,98 %
2026-08-22 09:58:1222,46 °C67,97 %
2026-08-22 09:59:1222,46 °C67,96 %
2026-08-22 10:00:1222,46 °C67,95 %
2026-08-22 10:01:1222,45 °C67,96 %
2026-08-22 10:02:1222,46 °C67,95 %
2026-08-22 10:03:1222,45 °C67,95 %
2026-08-22 10:04:1222,44 °C67,94 %
2026-08-22 10:05:1222,43 °C67,95 %
2026-08-22 10:06:1222,45 °C67,91 %
2026-08-22 10:07:1422,43 °C67,91 %
2026-08-22 10:08:1222,43 °C67,91 %
2026-08-22 10:09:1322,42 °C67,87 %
2026-08-22 10:10:1422,44 °C67,89 %
2026-08-22 10:11:1222,44 °C67,86 %
2026-08-22 10:12:1222,43 °C67,87 %
2026-08-22 10:13:1222,43 °C67,82 %
2026-08-22 10:14:1222,43 °C67,83 %
2026-08-22 10:15:1222,42 °C67,81 %
2026-08-22 10:16:1222,43 °C67,83 %
2026-08-22 10:17:1222,42 °C67,80 %
2026-08-22 10:18:1222,43 °C67,81 %
2026-08-22 10:19:1222,43 °C67,79 %
2026-08-22 10:20:1222,43 °C67,79 %
2026-08-22 10:21:1222,42 °C67,80 %
2026-08-22 10:22:1422,44 °C67,76 %
2026-08-22 10:23:1322,42 °C67,71 %
2026-08-22 10:24:1322,43 °C67,75 %
2026-08-22 10:25:1222,42 °C67,72 %
2026-08-22 10:26:1222,43 °C67,72 %
2026-08-22 10:27:1222,40 °C67,72 %
2026-08-22 10:28:1222,42 °C67,70 %
2026-08-22 10:29:1222,43 °C67,72 %
2026-08-22 10:30:1222,42 °C67,73 %
2026-08-22 10:31:1222,43 °C67,74 %
2026-08-22 10:32:1222,42 °C67,71 %
2026-08-22 10:33:1222,43 °C67,71 %
2026-08-22 10:34:1222,42 °C67,74 %
2026-08-22 10:35:1222,43 °C67,74 %
2026-08-22 10:36:1222,46 °C67,76 %
2026-08-22 10:37:1222,43 °C67,76 %
2026-08-22 10:38:1322,45 °C67,79 %
2026-08-22 10:39:1322,46 °C67,79 %
2026-08-22 10:40:1222,48 °C67,86 %
2026-08-22 10:41:1222,47 °C67,91 %
2026-08-22 10:42:1222,48 °C67,94 %
2026-08-22 10:43:1222,49 °C67,97 %
2026-08-22 10:44:1222,48 °C67,99 %
2026-08-22 10:45:1222,52 °C68,00 %
2026-08-22 10:46:1222,50 °C68,04 %
2026-08-22 10:47:1222,51 °C68,06 %
2026-08-22 10:48:1222,51 °C68,06 %
2026-08-22 10:49:1222,52 °C68,08 %
2026-08-22 10:50:1222,53 °C68,11 %
2026-08-22 10:51:1222,52 °C68,12 %
2026-08-22 10:52:1222,52 °C68,05 %
2026-08-22 10:53:1222,52 °C68,05 %
2026-08-22 10:54:1222,50 °C68,03 %
2026-08-22 10:55:1222,51 °C68,09 %
2026-08-22 10:56:1222,50 °C68,10 %
2026-08-22 10:57:1222,52 °C68,10 %
2026-08-22 10:58:1222,52 °C68,11 %
2026-08-22 10:59:1222,55 °C68,13 %
2026-08-22 11:00:1222,54 °C68,11 %
2026-08-22 11:01:1222,52 °C68,10 %
2026-08-22 11:02:1222,54 °C68,07 %
2026-08-22 11:03:1222,52 °C68,07 %
2026-08-22 11:04:1222,54 °C68,09 %
2026-08-22 11:05:1222,54 °C68,10 %
2026-08-22 11:06:1222,63 °C68,24 %
2026-08-22 11:07:1222,63 °C68,26 %
2026-08-22 11:08:1222,60 °C68,23 %
2026-08-22 11:09:1222,62 °C68,21 %
2026-08-22 11:10:1222,64 °C68,20 %
2026-08-22 11:11:1222,63 °C68,18 %
2026-08-22 11:12:1222,64 °C68,21 %
2026-08-22 11:13:1222,64 °C68,17 %
2026-08-22 11:14:1222,63 °C68,16 %
2026-08-22 11:15:1322,66 °C68,20 %
2026-08-22 11:16:1222,67 °C68,21 %
2026-08-22 11:17:1222,64 °C68,19 %
2026-08-22 11:18:1222,67 °C68,17 %
2026-08-22 11:19:1222,64 °C68,19 %
2026-08-22 11:20:1222,66 °C68,19 %
2026-08-22 11:21:1222,67 °C68,22 %
2026-08-22 11:22:1222,67 °C68,21 %
2026-08-22 11:23:1222,66 °C68,20 %
2026-08-22 11:24:1222,67 °C68,21 %
2026-08-22 11:25:1222,68 °C68,17 %
2026-08-22 11:26:1222,70 °C68,22 %
2026-08-22 11:27:1222,69 °C68,20 %
2026-08-22 11:28:1222,70 °C68,16 %
2026-08-22 11:29:1222,72 °C68,20 %
2026-08-22 11:30:1222,72 °C68,16 %
2026-08-22 11:31:1222,72 °C68,20 %
2026-08-22 11:32:1222,70 °C68,16 %
2026-08-22 11:33:1222,71 °C68,18 %
2026-08-22 11:34:1222,72 °C68,18 %
2026-08-22 11:35:1222,73 °C68,19 %
2026-08-22 11:36:1222,72 °C68,13 %
2026-08-22 11:37:1222,75 °C68,14 %
2026-08-22 11:38:1222,77 °C68,13 %
2026-08-22 11:39:1222,77 °C68,09 %
2026-08-22 11:40:1222,80 °C68,12 %
2026-08-22 11:41:1222,78 °C68,05 %
2026-08-22 11:42:1222,79 °C68,05 %
2026-08-22 11:43:1222,82 °C68,02 %
2026-08-22 11:44:1222,82 °C67,93 %
2026-08-22 11:45:1222,83 °C67,95 %
2026-08-22 11:46:1222,82 °C67,96 %
2026-08-22 11:47:1222,81 °C67,95 %
2026-08-22 11:48:1222,83 °C67,92 %
2026-08-22 11:49:1222,85 °C67,86 %
2026-08-22 11:50:1222,86 °C67,86 %
2026-08-22 11:51:1222,87 °C67,82 %
2026-08-22 11:52:1222,89 °C67,81 %
2026-08-22 11:53:1222,89 °C67,80 %
2026-08-22 11:54:1222,89 °C67,75 %
2026-08-22 11:55:1222,90 °C67,75 %
2026-08-22 11:56:1222,90 °C67,74 %
2026-08-22 11:57:1222,91 °C67,73 %
2026-08-22 11:58:1222,93 °C67,68 %
2026-08-22 11:59:1222,91 °C67,68 %
2026-08-22 12:00:1222,93 °C67,71 %
2026-08-22 12:01:1222,91 °C67,59 %
2026-08-22 12:02:1222,90 °C67,60 %
2026-08-22 12:03:1222,93 °C67,60 %
2026-08-22 12:04:1322,91 °C67,61 %
2026-08-22 12:05:1222,91 °C67,59 %
2026-08-22 12:06:1222,92 °C67,58 %
2026-08-22 12:07:1222,91 °C67,59 %
2026-08-22 12:08:1222,93 °C67,55 %
2026-08-22 12:09:1222,91 °C67,52 %
2026-08-22 12:10:1222,91 °C67,50 %
2026-08-22 12:11:1222,93 °C67,47 %
2026-08-22 12:12:1222,94 °C67,43 %
2026-08-22 12:13:1222,94 °C67,43 %
2026-08-22 12:14:1222,96 °C67,37 %
2026-08-22 12:15:1222,97 °C67,40 %
2026-08-22 12:16:1222,95 °C67,39 %
2026-08-22 12:17:1222,96 °C67,42 %
2026-08-22 12:18:1222,97 °C67,40 %
2026-08-22 12:19:1222,95 °C67,37 %
2026-08-22 12:20:1222,96 °C67,32 %
2026-08-22 12:21:1222,96 °C67,38 %
2026-08-22 12:22:1222,96 °C67,37 %
2026-08-22 12:23:1222,98 °C67,37 %
2026-08-22 12:24:1222,95 °C67,37 %
2026-08-22 12:25:1222,99 °C67,40 %
2026-08-22 12:26:1223,00 °C67,32 %
2026-08-22 12:27:1222,98 °C67,36 %
2026-08-22 12:28:1322,99 °C67,27 %
2026-08-22 12:29:1523,01 °C67,27 %
2026-08-22 12:30:1223,02 °C67,28 %
2026-08-22 12:31:1223,04 °C67,15 %
2026-08-22 12:32:1223,05 °C67,07 %
2026-08-22 12:33:1223,08 °C67,02 %
2026-08-22 12:34:1223,07 °C66,97 %
2026-08-22 12:35:1223,07 °C66,99 %
2026-08-22 12:36:1223,08 °C66,95 %
2026-08-22 12:37:1223,08 °C66,93 %
2026-08-22 12:38:1223,11 °C66,87 %
2026-08-22 12:39:1223,11 °C66,76 %
2026-08-22 12:41:1223,09 °C66,64 %
2026-08-22 12:42:1223,10 °C66,55 %
2026-08-22 12:43:1223,11 °C66,48 %
2026-08-22 12:44:1223,13 °C66,32 %
2026-08-22 12:45:1223,12 °C66,24 %
2026-08-22 12:46:1223,11 °C66,18 %
2026-08-22 12:47:1223,11 °C65,98 %
2026-08-22 12:48:1223,10 °C65,94 %
2026-08-22 12:49:1223,13 °C65,92 %
2026-08-22 12:50:1223,13 °C65,90 %
2026-08-22 12:51:1223,13 °C65,79 %
2026-08-22 12:52:1323,13 °C65,73 %
2026-08-22 12:53:1223,10 °C65,69 %
2026-08-22 12:54:1223,11 °C65,53 %
2026-08-22 12:55:1223,12 °C65,51 %
2026-08-22 12:56:1223,14 °C65,53 %
2026-08-22 12:57:1323,14 °C65,56 %
2026-08-22 12:58:1223,13 °C65,53 %
2026-08-22 12:59:1223,15 °C65,47 %
2026-08-22 13:00:1223,15 °C65,35 %
2026-08-22 13:01:1223,17 °C65,16 %
2026-08-22 13:02:1223,19 °C65,06 %
2026-08-22 13:03:1223,16 °C65,04 %
2026-08-22 13:04:1223,20 °C65,02 %
2026-08-22 13:05:1523,20 °C64,97 %
2026-08-22 13:06:1223,17 °C64,85 %
2026-08-22 13:07:1223,19 °C64,90 %
2026-08-22 13:08:1223,19 °C64,78 %
2026-08-22 13:09:1223,18 °C64,70 %
2026-08-22 13:10:1223,19 °C64,65 %
2026-08-22 13:11:1223,20 °C64,59 %
2026-08-22 13:12:1223,20 °C64,51 %
2026-08-22 13:13:1223,16 °C64,46 %
2026-08-22 13:14:1223,17 °C64,42 %
2026-08-22 13:15:1223,15 °C64,38 %
2026-08-22 13:16:1223,15 °C64,35 %
2026-08-22 13:17:1223,16 °C64,39 %
2026-08-22 13:18:1323,17 °C64,31 %
2026-08-22 13:19:1223,15 °C64,30 %
2026-08-22 13:20:1223,17 °C64,25 %
2026-08-22 13:21:1223,14 °C64,32 %
2026-08-22 13:22:1223,16 °C64,35 %
2026-08-22 13:23:1223,15 °C64,29 %
2026-08-22 13:24:1223,15 °C64,36 %
2026-08-22 13:25:1223,14 °C64,27 %
2026-08-22 13:26:1223,15 °C64,40 %
2026-08-22 13:27:1223,16 °C64,39 %
2026-08-22 13:28:1223,19 °C64,38 %
2026-08-22 13:29:1423,19 °C64,31 %
2026-08-22 13:30:1223,20 °C64,32 %
2026-08-22 13:31:1223,22 °C64,36 %
2026-08-22 13:32:1223,22 °C64,38 %
2026-08-22 13:33:1223,22 °C64,37 %
2026-08-22 13:34:1223,22 °C64,29 %
2026-08-22 13:35:1223,24 °C64,26 %
2026-08-22 13:36:1223,25 °C64,18 %
2026-08-22 13:37:1223,23 °C64,16 %
2026-08-22 13:38:1223,23 °C64,18 %
2026-08-22 13:39:1223,23 °C64,13 %
2026-08-22 13:40:1223,21 °C64,00 %
2026-08-22 13:41:1223,22 °C64,00 %
2026-08-22 13:42:1223,22 °C63,96 %
2026-08-22 13:43:1223,22 °C63,89 %
2026-08-22 13:44:1223,21 °C63,71 %
2026-08-22 13:45:1223,21 °C63,69 %
2026-08-22 13:46:1223,20 °C63,62 %
2026-08-22 13:47:1223,19 °C63,55 %
2026-08-22 13:48:1223,17 °C63,65 %
2026-08-22 13:49:1223,15 °C63,60 %
2026-08-22 13:50:1223,15 °C63,63 %
2026-08-22 13:51:1223,14 °C63,64 %
2026-08-22 13:52:1223,15 °C63,64 %
2026-08-22 13:53:1423,16 °C63,74 %
2026-08-22 13:54:1323,15 °C63,69 %
2026-08-22 13:55:1223,16 °C63,67 %
2026-08-22 13:56:1223,18 °C63,71 %
2026-08-22 13:57:1223,18 °C63,77 %
2026-08-22 13:58:1223,20 °C63,85 %
2026-08-22 13:59:1223,22 °C63,77 %
2026-08-22 14:00:1223,22 °C63,79 %
2026-08-22 14:01:1223,21 °C63,80 %
2026-08-22 14:02:1223,25 °C63,87 %
2026-08-22 14:03:1223,24 °C63,85 %
2026-08-22 14:04:1223,25 °C63,89 %
2026-08-22 14:05:1223,27 °C63,96 %
2026-08-22 14:06:1223,25 °C63,89 %
2026-08-22 14:07:1223,29 °C63,94 %
2026-08-22 14:08:1223,27 °C63,97 %
2026-08-22 14:09:1223,28 °C64,00 %
2026-08-22 14:10:1223,30 °C63,91 %
2026-08-22 14:11:1223,32 °C63,93 %
2026-08-22 14:12:1223,32 °C63,95 %
2026-08-22 14:13:1223,28 °C63,91 %
2026-08-22 14:14:1223,28 °C63,85 %
2026-08-22 14:15:1223,26 °C63,91 %
2026-08-22 14:16:1223,28 °C63,98 %
2026-08-22 14:17:1223,24 °C64,07 %
2026-08-22 14:18:1223,23 °C64,12 %
2026-08-22 14:19:1223,25 °C64,18 %
2026-08-22 14:20:1223,26 °C64,22 %
2026-08-22 14:21:1223,25 °C64,26 %
2026-08-22 14:22:1223,22 °C64,32 %
2026-08-22 14:23:1223,22 °C64,35 %
2026-08-22 14:24:1323,24 °C64,42 %
2026-08-22 14:25:1223,23 °C64,44 %
2026-08-22 14:26:1223,24 °C64,49 %
2026-08-22 14:27:1223,24 °C64,54 %
2026-08-22 14:28:1223,23 °C64,55 %
2026-08-22 14:29:1223,24 °C64,57 %
2026-08-22 14:30:1223,23 °C64,63 %
2026-08-22 14:31:1223,25 °C64,64 %
2026-08-22 14:32:1223,22 °C64,64 %
2026-08-22 14:33:1223,25 °C64,67 %
2026-08-22 14:34:1223,22 °C64,57 %
2026-08-22 14:35:1223,20 °C64,60 %
2026-08-22 14:36:1323,19 °C64,62 %
2026-08-22 14:37:1323,17 °C64,69 %
2026-08-22 14:38:1323,17 °C64,57 %
2026-08-22 14:39:1223,18 °C64,53 %
2026-08-22 14:40:1223,13 °C64,54 %
2026-08-22 14:41:1223,11 °C64,35 %
2026-08-22 14:42:1223,09 °C64,36 %
2026-08-22 14:43:1223,08 °C64,45 %
2026-08-22 14:44:1223,07 °C64,35 %
2026-08-22 14:45:1223,06 °C64,15 %
2026-08-22 14:46:1223,02 °C64,18 %
2026-08-22 14:47:1223,01 °C64,23 %
2026-08-22 14:48:1223,01 °C64,31 %
2026-08-22 14:49:1223,03 °C64,41 %
2026-08-22 14:50:1223,01 °C64,46 %
2026-08-22 14:51:1223,01 °C64,43 %
2026-08-22 14:52:1223,01 °C64,44 %
2026-08-22 14:53:1223,00 °C64,46 %
2026-08-22 14:54:1222,98 °C64,42 %
2026-08-22 14:55:1222,98 °C64,40 %
2026-08-22 14:56:1223,00 °C64,42 %
2026-08-22 14:57:1222,98 °C64,45 %
2026-08-22 14:58:1222,95 °C64,39 %
2026-08-22 14:59:1222,94 °C64,42 %
2026-08-22 15:00:1222,94 °C64,37 %
2026-08-22 15:01:1222,92 °C64,37 %
2026-08-22 15:02:1622,94 °C64,40 %
2026-08-22 15:03:1222,90 °C64,46 %
2026-08-22 15:04:1222,94 °C64,49 %
2026-08-22 15:05:1222,94 °C64,50 %
2026-08-22 15:06:1222,93 °C64,51 %
2026-08-22 15:07:1222,96 °C64,56 %
2026-08-22 15:08:1222,98 °C64,59 %
2026-08-22 15:09:1222,96 °C64,58 %
2026-08-22 15:10:1222,98 °C64,59 %
2026-08-22 15:11:1222,98 °C64,58 %
2026-08-22 15:12:1222,97 °C64,57 %
2026-08-22 15:13:1222,98 °C64,60 %
2026-08-22 15:14:1222,96 °C64,61 %
2026-08-22 15:15:1222,98 °C64,57 %
2026-08-22 15:16:1222,96 °C64,45 %
2026-08-22 15:17:1222,98 °C64,47 %
2026-08-22 15:18:1222,97 °C64,53 %
2026-08-22 15:19:1222,99 °C64,53 %
2026-08-22 15:20:1222,98 °C64,60 %
2026-08-22 15:21:1223,00 °C64,56 %
2026-08-22 15:22:1223,04 °C64,54 %
2026-08-22 15:23:1223,05 °C64,52 %
2026-08-22 15:24:1223,05 °C64,58 %
2026-08-22 15:25:1223,05 °C64,60 %
2026-08-22 15:26:1323,07 °C64,56 %
2026-08-22 15:27:1223,05 °C64,58 %
2026-08-22 15:28:1223,09 °C64,58 %
2026-08-22 15:29:1223,11 °C64,61 %
2026-08-22 15:30:1223,09 °C64,62 %
2026-08-22 15:31:1223,13 °C64,65 %
2026-08-22 15:32:1223,14 °C64,58 %
2026-08-22 15:33:1223,11 °C64,64 %
2026-08-22 15:34:1223,13 °C64,68 %
2026-08-22 15:35:1223,15 °C64,69 %
2026-08-22 15:36:1223,17 °C64,71 %
2026-08-22 15:37:1223,17 °C64,75 %
2026-08-22 15:38:1323,18 °C64,74 %
2026-08-22 15:39:1223,18 °C64,77 %
2026-08-22 15:40:1223,19 °C64,76 %
2026-08-22 15:41:1223,19 °C64,83 %
2026-08-22 15:42:1223,22 °C64,71 %
2026-08-22 15:43:1223,18 °C64,73 %
2026-08-22 15:44:1223,20 °C64,77 %
2026-08-22 15:45:1223,22 °C64,78 %
2026-08-22 15:46:1223,22 °C64,77 %
2026-08-22 15:47:1223,22 °C64,76 %
2026-08-22 15:48:1223,22 °C64,78 %
2026-08-22 15:49:1223,24 °C64,86 %
2026-08-22 15:50:1323,22 °C64,84 %
2026-08-22 15:51:1223,21 °C64,81 %
2026-08-22 15:52:1223,23 °C64,81 %
2026-08-22 15:53:1223,23 °C64,83 %
2026-08-22 15:54:1223,25 °C64,81 %
2026-08-22 15:55:1223,25 °C64,76 %
2026-08-22 15:56:1223,22 °C64,71 %
2026-08-22 15:57:1223,23 °C64,75 %
2026-08-22 15:58:1223,23 °C64,70 %
2026-08-22 15:59:1223,23 °C64,67 %
2026-08-22 16:00:1223,25 °C64,55 %
2026-08-22 16:01:1223,23 °C64,54 %
2026-08-22 16:02:1223,25 °C64,48 %
2026-08-22 16:03:1223,22 °C64,49 %
2026-08-22 16:04:1223,23 °C64,38 %
2026-08-22 16:05:1223,22 °C64,31 %
2026-08-22 16:06:1223,23 °C64,27 %
2026-08-22 16:07:1223,20 °C64,30 %
2026-08-22 16:08:1223,21 °C64,38 %
2026-08-22 16:09:1223,21 °C64,40 %
2026-08-22 16:10:1223,20 °C64,34 %
2026-08-22 16:11:1223,20 °C64,33 %
2026-08-22 16:12:1223,22 °C64,41 %
2026-08-22 16:13:1223,22 °C64,41 %
2026-08-22 16:14:1223,23 °C64,48 %
2026-08-22 16:15:1223,25 °C64,41 %
2026-08-22 16:16:1223,24 °C64,10 %
2026-08-22 16:17:1223,22 °C64,11 %
2026-08-22 16:18:1223,25 °C64,15 %
2026-08-22 16:19:1223,23 °C64,18 %
2026-08-22 16:20:1223,23 °C64,19 %
2026-08-22 16:21:1223,26 °C64,18 %
2026-08-22 16:22:1223,23 °C64,24 %
2026-08-22 16:23:1223,25 °C64,15 %
2026-08-22 16:24:1223,27 °C64,15 %
2026-08-22 16:25:1223,27 °C64,20 %
2026-08-22 16:26:1223,28 °C64,25 %
2026-08-22 16:27:1223,26 °C64,28 %
2026-08-22 16:28:1423,29 °C64,32 %
2026-08-22 16:29:1223,29 °C64,34 %
2026-08-22 16:30:1223,31 °C64,35 %
2026-08-22 16:31:1223,31 °C64,35 %
2026-08-22 16:32:1223,30 °C64,37 %
2026-08-22 16:33:1223,30 °C64,35 %
2026-08-22 16:34:1223,30 °C64,40 %
2026-08-22 16:35:1223,32 °C64,35 %
2026-08-22 16:36:1223,30 °C64,32 %
2026-08-22 16:37:1223,31 °C64,36 %
2026-08-22 16:38:1223,32 °C64,22 %
2026-08-22 16:39:1223,30 °C64,21 %
2026-08-22 16:40:1223,32 °C64,23 %
2026-08-22 16:41:1223,29 °C64,15 %
2026-08-22 16:42:1223,30 °C64,21 %
2026-08-22 16:43:1223,31 °C64,09 %
2026-08-22 16:44:1223,28 °C63,96 %
2026-08-22 16:45:1223,27 °C63,86 %
2026-08-22 16:46:1223,29 °C63,70 %
2026-08-22 16:47:1223,28 °C63,49 %
2026-08-22 16:48:1223,24 °C63,36 %
2026-08-22 16:49:1223,23 °C63,17 %
2026-08-22 16:50:1223,24 °C63,30 %
2026-08-22 16:51:1223,23 °C63,23 %
2026-08-22 16:52:1223,23 °C63,35 %
2026-08-22 16:53:1223,26 °C63,42 %
2026-08-22 16:54:1223,25 °C63,47 %
2026-08-22 16:55:1223,23 °C63,42 %
2026-08-22 16:56:1223,25 °C63,46 %
2026-08-22 16:57:1223,26 °C63,44 %
2026-08-22 16:58:1223,26 °C63,47 %
2026-08-22 16:59:1223,26 °C63,46 %
2026-08-22 17:00:1223,26 °C63,47 %
2026-08-22 17:01:1223,27 °C63,50 %
2026-08-22 17:02:1223,28 °C63,48 %
2026-08-22 17:03:1223,33 °C63,52 %
2026-08-22 17:04:1223,37 °C63,49 %
2026-08-22 17:05:1223,36 °C63,45 %
2026-08-22 17:06:1223,38 °C63,45 %
2026-08-22 17:07:1223,42 °C63,40 %
2026-08-22 17:08:1223,38 °C63,38 %

Boveda-Referenz

Vorhandener Sollwert: 62 % Luftfeuchtigkeit.

Durchschnitt: 67,02 % · Abweichung: 5,02 Prozentpunkte

Bosch Vergleichssensor

1321 Messungen

Temperatur

Minimum22,00 °C
Maximum25,50 °C
Durchschnitt23,01 °C
Gültige Messungen1321

SHT41 ↔ Bosch Vergleich: 23,11 °C / 23,01 °C

Differenz: 0,10 °C

Luftfeuchte

Minimum58,00 %
Maximum62,10 %
Durchschnitt60,50 %
Gültige Messungen1321

SHT41 ↔ Bosch Vergleich: 67,02 % / 60,50 %

Differenz: 6,52 Prozentpunkte